LA1KNX Weather Reports


time (UTC)temp
F
wind
direction
speed
knots
gust
knots
rain 1hr
in
rain 24hr
in
rain mn
in
humidity
%
barometer
mb
20260507090006 61 2 3.5 0.0 0.00 0.00 0.00 61 1018.2
20260507084502 60 2 3.5 0.0 0.00 0.00 0.00 61 1018.2
20260507083004 62 2 3.5 0.0 0.00 0.00 0.00 61 1018.2
20260507081501 61 4 3.5 0.0 0.00 0.00 0.00 61 1018.2
20260507080004 61 4 3.5 0.0 0.00 0.00 0.00 61 1018.2
20260507074502 59 4 3.5 0.0 0.00 0.00 0.00 61 1018.2
20260507073004 57 4 3.5 0.0 0.00 0.00 0.00 61 1018.2
20260507071504 54 4 3.5 0.0 0.00 0.00 0.00 61 1018.2
20260507070003 51 4 3.5 0.0 0.00 0.00 0.00 61 1018.2
20260507064501 43 4 3.5 0.0 0.00 0.00 0.00 61 1018.2
20260507063002 38 26 0.9 0.0 0.00 0.00 0.00 61 1018.2
20260507061502 38 26 0.9 0.0 0.00 0.00 0.00 61 1018.2
20260507060002 37 26 0.9 0.0 0.00 0.00 0.00 61 1018.2
20260507054504 36 202 1.7 0.0 0.00 0.00 0.00 61 1018.2
20260507053003 35 202 1.7 0.0 0.00 0.00 0.00 61 1018.2
20260507051503 34 202 1.7 0.0 0.00 0.00 0.00 61 1018.2
20260507050005 34 202 1.7 0.0 0.00 0.00 0.00 61 1018.2
20260507044503 33 202 1.7 0.0 0.00 0.00 0.00 61 1018.2
20260507043002 33 42 1.7 0.0 0.00 0.00 0.00 61 1018.2
20260507041505 33 42 1.7 0.0 0.00 0.00 0.00 61 1018.2
20260507040003 33 336 3.5 0.0 0.00 0.00 0.00 61 1018.2
20260507034501 33 336 3.5 0.0 0.00 0.00 0.00 61 1018.2
20260507033002 33 336 3.5 0.0 0.00 0.00 0.00 61 1018.2
20260507031503 33 336 3.5 0.0 0.00 0.00 0.00 61 1018.2
20260507030003 33 336 3.5 0.0 0.00 0.00 0.00 61 1018.2
20260507024501 33 336 3.5 0.0 0.00 0.00 0.00 61 1018.2
20260507023005 34 312 7.0 0.0 0.00 0.00 0.00 61 1018.2
20260507021501 34 312 7.0 0.0 0.00 0.00 0.00 61 1018.2
20260507020003 34 309 7.0 0.0 0.00 0.00 0.00 61 1018.2
20260507014502 35 309 7.0 0.0 0.00 0.00 0.00 61 1018.2
20260507013003 35 309 7.0 0.0 0.00 0.00 0.00 61 1018.2
20260507010005 35 309 7.0 0.0 0.00 0.00 0.00 61 1018.2
20260507004502 36 308 7.0 0.0 0.00 0.00 0.00 61 1018.2
20260507003003 36 308 7.0 0.0 0.00 0.00 0.00 61 1018.2
20260507001501 37 308 7.0 0.0 0.00 0.00 0.00 61 1018.2
20260507000003 37 309 7.8 0.0 0.00 0.00 0.00 61 1018.2
20260506234502 38 309 7.8 0.0 0.00 0.00 0.00 61 1018.2
20260506233006 38 309 7.8 0.0 0.00 0.00 0.00 61 1018.2
20260506231501 38 309 7.8 0.0 0.00 0.00 0.00 61 1018.2
20260506230004 38 309 7.8 0.0 0.00 0.00 0.00 61 1018.2
20260506224502 38 300 7.0 0.0 0.00 0.00 0.00 61 1018.2
20260506223002 39 300 7.0 0.0 0.00 0.00 0.00 61 1018.2
20260506221502 39 276 3.5 0.0 0.00 0.00 0.00 61 1018.2
20260506220003 40 276 3.5 0.0 0.00 0.00 0.00 61 1018.2
20260506214501 40 276 3.5 0.0 0.00 0.00 0.00 61 1018.2
20260506213002 41 276 3.5 0.0 0.00 0.00 0.00 61 1018.2
20260506211504 41 276 3.5 0.0 0.00 0.00 0.00 61 1018.2
20260506210002 41 267 2.6 0.0 0.00 0.00 0.00 61 1018.2
20260506204502 42 267 2.6 0.0 0.00 0.00 0.00 61 1018.2
20260506203004 42 267 2.6 0.0 0.00 0.00 0.00 61 1018.2
20260506201502 42 201 4.3 0.0 0.00 0.00 0.00 61 1018.2
20260506200003 43 201 4.3 0.0 0.00 0.00 0.00 61 1018.2
20260506194502 44 201 4.3 0.0 0.00 0.00 0.00 61 1018.2
20260506193002 44 201 4.3 0.0 0.00 0.00 0.00 61 1018.2
20260506191502 44 201 4.3 0.0 0.00 0.00 0.00 61 1018.2
20260506190002 45 201 4.3 0.0 0.00 0.00 0.00 61 1018.2
20260506184502 46 201 4.3 0.0 0.00 0.00 0.00 61 1018.2
20260506183002 46 156 5.2 0.0 0.00 0.00 0.00 61 1018.2
20260506181505 47 156 5.2 0.0 0.00 0.00 0.00 61 1018.2
20260506180002 47 156 5.2 0.0 0.00 0.00 0.00 61 1018.2
20260506174502 47 130 6.1 0.0 0.00 0.00 0.00 61 1018.2
20260506173005 47 130 6.1 0.0 0.00 0.00 0.00 61 1018.2
20260506171502 47 130 6.1 0.0 0.00 0.00 0.00 61 1018.2
20260506170002 47 130 6.1 0.0 0.00 0.00 0.00 61 1018.2
20260506164503 47 130 6.1 0.0 0.00 0.00 0.00 61 1018.2
20260506163005 47 108 5.2 0.0 0.00 0.00 0.00 61 1018.2
20260506161502 47 108 5.2 0.0 0.00 0.00 0.00 61 1018.2
20260506160002 47 108 5.2 0.0 0.00 0.00 0.00 61 1018.2
20260506154502 47 89 5.2 0.0 0.00 0.00 0.00 61 1018.2
20260506153003 47 89 5.2 0.0 0.00 0.00 0.00 61 1018.2
20260506151502 46 89 5.2 0.0 0.00 0.00 0.00 61 1018.2
20260506150002 46 89 5.2 0.0 0.00 0.00 0.00 61 1018.2
20260506144502 46 89 5.2 0.0 0.00 0.00 0.00 61 1018.2
20260506143001 46 94 5.2 0.0 0.00 0.00 0.00 61 1018.2
20260506141503 46 94 5.2 0.0 0.00 0.00 0.00 61 1018.2
20260506140002 46 92 6.1 0.0 0.00 0.00 0.00 61 1018.2
20260506134502 47 92 6.1 0.0 0.00 0.00 0.00 61 1018.2
20260506133003 48 92 6.1 0.0 0.00 0.00 0.00 61 1018.2
20260506131505 48 92 6.1 0.0 0.00 0.00 0.00 61 1018.2
20260506130003 48 92 6.1 0.0 0.00 0.00 0.00 61 1018.2
20260506124502 48 99 5.2 0.0 0.00 0.00 0.00 61 1018.2
20260506123002 49 99 5.2 0.0 0.00 0.00 0.00 61 1018.2
20260506121503 48 99 5.2 0.0 0.00 0.00 0.00 61 1018.2
20260506120004 47 101 4.3 0.0 0.00 0.00 0.00 61 1018.2
20260506114502 47 101 4.3 0.0 0.00 0.00 0.00 61 1018.2
20260506113002 47 101 4.3 0.0 0.00 0.00 0.00 61 1018.2
20260506111503 47 101 4.3 0.0 0.00 0.00 0.00 61 1018.2
20260506110003 47 101 4.3 0.0 0.00 0.00 0.00 61 1018.2
20260506103002 47 109 4.3 0.0 0.00 0.00 0.00 61 1018.2
20260506101503 47 98 3.5 0.0 0.00 0.00 0.00 61 1018.2
20260506100004 48 98 3.5 0.0 0.00 0.00 0.00 61 1018.2
20260506094502 51 98 3.5 0.0 0.00 0.00 0.00 61 1018.2
20260506093002 52 98 3.5 0.0 0.00 0.00 0.00 61 1018.2
20260506091501 53 98 3.5 0.0 0.00 0.00 0.00 61 1018.2